Regional Weather Roundup
Issued by NWS

Home | Current Version | Previous Version | Text Only | Print | Product List | Glossary On
Versions: 1 2 3 4 5 6 7 8 9 10 11 12 13 14 15 16 17 18 19 20 21 22 23 24 25 26 27 28 29 30 31 32 33 34 35 36 37 38 39 40 41 42 43 44 45 46 47 48 49 50
000
ASUS43 KDMX 250606
RWRIA

WEATHER ROUNDUP FOR IOWA
NATIONAL WEATHER SERVICE DES MOINES IA
1200 AM CST SUN FEB 25 2018

NOTE: "FAIR" INDICATES FEW OR NO CLOUDS BELOW 12,000 FEET WITH NO
SIGNIFICANT WEATHER AND/OR OBSTRUCTIONS TO VISIBILITY.

* - THESE STATIONS ARE NOT NWS STATIONS...THUS NOT UNDER NWS
QUALITY CONTROL.  THEY ALSO DO NOT REPORT WEATHER SUCH
AS PRECIPITATION OR FOG.

IAZ001>003-012>014-020>022-031>034-043>046-250700-
   NORTHWEST IOWA

CITY           SKY/WX    TMP DP  RH WIND       PRES   REMARKS
CARROLL *      MOCLDY    27  23  86 W29G38    29.71S WCI  11
CHEROKEE *     PTCLDY    16  14  90 W13G21    29.73R WCI   3
DENISON *      CLOUDY    25  21  86 W13G21    29.77R WCI  13
LE MARS *      CLEAR     16  12  86 W13       29.75S WCI   2
ORANGE CITY *  CLEAR     16  14  93 W17       29.71R WCI   0
SHELDON *      CLEAR     12  10  92 W17       29.67S WCI  -5
SIOUX CITY     CLEAR     16  12  84 W7        29.77R WCI   6
6HR MIN TEMP:  16; 6HR MAX TEMP:  28; 6HR PCP: TRACE;

SPENCER        CLEAR     15  11  83 W21G29    29.67R WCI  -2
6HR MIN TEMP:  15; 6HR MAX TEMP:  23; 6HR PCP: TRACE;

STORM LAKE *   CLOUDY    16  14  93 W25G33    29.69R FOG     WCI  -3
$$

IAZ055>058-069>071-079>083-090>094-250700-
   SOUTHWEST IOWA

CITY           SKY/WX    TMP DP  RH WIND       PRES   REMARKS
ATLANTIC *     CLOUDY    28  27  93 W15G22    29.78R WCI  17
AUDUBON *      CLOUDY    28  25  86 W9        29.75R WCI  20
CLARINDA *     PTCLDY    30  28  93 W13       29.86R WCI  20
COUNCIL BLFS * CLEAR     27  25  93 W21G29    29.81R WCI  13
CRESTON *      CLEAR     28  27  93 W17       29.78R WCI  16
LAMONI         CLEAR     30  26  85 SW15      29.79R WCI  19
6HR MIN TEMP:  29; 6HR MAX TEMP:  33;

RED OAK *      PTCLDY    28  27  93 W13       29.83R WCI  18
SHENANDOAH *   CLEAR     30  27  86 W18G25    29.86R WCI  18
$$

IAZ047>049-059>061-072>074-084-250700-
   CENTRAL IOWA

CITY           SKY/WX    TMP DP  RH WIND       PRES   REMARKS
AMES           CLOUDY    30  25  81 W18       29.71R WCI  18
6HR MIN TEMP:  29; 6HR MAX TEMP:  32; 6HR PCP:  0.01;

ANKENY *       CLOUDY    30  28  93 W14       29.74R WCI  20
BOONE *        CLOUDY    28  27  93 W20G29    29.69R WCI  15
CHARITON *     CLOUDY    30  28  93 W16G23    29.76R WCI  19
DES MOINES     MOCLDY    31  27  85 W18       29.73R WCI  19
6HR MIN TEMP:  30; 6HR MAX TEMP:  33; 6HR PCP: TRACE;

GRINNELL*      CLOUDY    30  27  89 W18G24    29.71R WCI  18
KNOXVILLE *    CLOUDY    32  28  86 SW15G23   29.73R WCI  22
MARSHALLTOWN   CLOUDY    29  26  89 W21       29.67R WCI  16
6HR MIN TEMP:  28; 6HR MAX TEMP:  34; 6HR PCP:  0.05;

NEWTON *       CLOUDY    30  28  93 W17G24    29.71S WCI  18
PELLA *        CLOUDY    31  28  85 W14       29.75R WCI  21
PERRY *        CLOUDY    31  28  91 W18G24    29.73R WCI  19
$$

IAZ004>006-015-016-023>025-035-036-250700-
   NORTH CENTRAL IOWA

CITY           SKY/WX    TMP DP  RH WIND       PRES   REMARKS
ALGONA *       CLOUDY    21 N/A N/A W28       29.65R FOG     WCI   3
CLARION *      CLOUDY    27  27 100 W28G35    29.66R WCI  11
ESTHERVILLE    MOCLDY    15  11  83 W24G32    29.63R FOG     WCI  -4
6HR MIN TEMP:  15; 6HR MAX TEMP:  23; 6HR PCP: TRACE;

FORT DODGE *   MIX PCPN  25  21  85 W16G26    29.69R WCI  12
MASON CITY     CLOUDY    22  20  92 W30G41    29.62R FOG     WCI   4
6HR MIN TEMP:  21; 6HR MAX TEMP:  32; 6HR PCP:  0.06;

FOREST CITY *  CLOUDY    23  21  93 W13       29.61R WCI  11
WEBSTER CITY * MIX PCPN  27  25  93 W25G32    29.65R WCI  11
IOWA FALLS *   CLOUDY    29  26  88 W24G30    29.66R WCI  15
$$

IAZ007>011-017>019-026>030-037>042-050>054-066-250700-
   NORTHEAST IOWA

CITY           SKY/WX    TMP DP  RH WIND       PRES   REMARKS
CEDAR RAPIDS   CLOUDY    31  28  89 W28G40    29.66R WCI  17
6HR MIN TEMP:  32; 6HR MAX TEMP:  37; 6HR PCP:  0.15;

CHARLES CITY * MOCLDY    23  25 100 W23G37    29.61R WCI   7
CLINTON *      CLOUDY    33  30  88 W26G33    29.61R WCI  20
DECORAH *      CLOUDY    27  25  93 W16G25    29.54R WCI  14
DUBUQUE        CLOUDY    32  50 100 W30G40    29.56R WCI  18
6HR MIN TEMP:  32; 6HR MAX TEMP:  37; 6HR PCP:  0.27;

MONTICELLO *   CLOUDY    32  28  86 W20G31    29.62R WCI  20
OELWEIN *      CLOUDY    27  27 100 W30G39    29.61R WCI  10
WATERLOO       MOCLDY    27  23  85 W16G28    29.64R WCI  15
6HR MIN TEMP:  26; 6HR MAX TEMP:  34; 6HR PCP:  0.16;

$$

IAZ064-065-067-068-078-250700-
   EAST CENTRAL IOWA

CITY           SKY/WX    TMP DP  RH WIND       PRES   REMARKS
DAVENPORT      CLOUDY    35  29  78 W23G32    29.66R WCI  23
6HR MIN TEMP:  35; 6HR MAX TEMP:  43; 6HR PCP:  0.42;

IOWA CITY      CLOUDY    34  27  75 W28G37    29.70R WCI  21
6HR MIN TEMP:  34; 6HR MAX TEMP:  40; 6HR PCP:  0.16;

MT. PLEASANT * CLOUDY    32  30  93 W18G28    29.75R WCI  20
MUSCATINE *    CLOUDY    34  28  80 W23G33    29.71R WCI  22
QUAD CITIES    CLOUDY    35  31  85 W22G31    29.66R WCI  23
6HR MIN TEMP:  35; 6HR MAX TEMP:  44; 6HR PCP:  0.24;

$$

IAZ062-063-075>077-085>089-095>099-250700-
   SOUTHEAST IOWA

CITY           SKY/WX    TMP DP  RH WIND       PRES   REMARKS
BURLINGTON     CLOUDY    33  29  85 W17G28    29.74R WCI  22
6HR MIN TEMP:  33; 6HR MAX TEMP:  44; 6HR PCP:  0.13;

FAIRFIELD *    CLOUDY    32  28  86 W20G30    29.73R WCI  20
FORT MADISON * CLOUDY    34  30  86 W13G23    29.77R WCI  25
KEOKUK *       CLOUDY    34  30  86 W23G29    29.78R WCI  22
OSKALOOSA *    MOCLDY    31  28  87 W17       29.74R WCI  20
OTTUMWA        MOCLDY    32  31  96 W17       29.74R WCI  21
WASHINGTON *   CLOUDY    34  32  93 W21G30    29.73R WCI  22
$$

ABBREVIATIONS USED IN REMARKS
   TC - TEMPERATURES IN CELSIUS
  WCI - WIND CHILL INDEX
   HX - HEAT INDEX
  VSB - VISIBILITY
$$




USA.gov is the U.S. government's official web portal to all federal, state and local government web resources and services.